Regional Weather Roundup
Issued by NWS Charleston, SC

Current Version | Previous Version | Graphics & Text | Print | Product List | Glossary On
Versions: 1 2 3 4 5 6 7 8 9 10 11 12 13 14 15 16 17 18 19 20 21 22 23 24 25 26 27 28 29 30 31 32 33 34 35 36 37 38 39 40 41 42 43 44 45 46 47 48 49 50
000
ASUS42 KCHS 290528
RWRCHS

REGIONAL WEATHER ROUNDUP
NATIONAL WEATHER SERVICE CHARLESTON SC
100 AM EDT MON AUG 29 2016

NOTE: "FAIR" INDICATES FEW OR NO CLOUDS BELOW 12,000 FEET WITH NO
SIGNIFICANT WEATHER AND/OR OBSTRUCTIONS TO VISIBILITY.

NOT ALL STATIONS ARE QUALITY CONTROLLED. USE DATA WITH CAUTION...
ESPECIALLY DEWPOINT OBSERVATIONS.

SCZ027-030-031-034>040-042>050-290600-
...SOUTHEAST SOUTH CAROLINA...

CITY           SKY/WX    TMP DP  RH WIND       PRES   REMARKS
N CHARLESTON   PTCLDY    77  74  90 N5        30.07F
WATERFRONT PRK   N/A     80  78  94 NE9       30.05F
MOUNT PLEASANT FAIR      75  75 100 CALM      30.07F FOG
JOHNS ISLAND   FAIR      77  77 100 CALM      30.06F FOG
PINOPOLIS        N/A     79  75  89 E12       30.02S
MONCKS CORNER  FAIR      73  72  94 NE5       30.07F
SUMMERVILLE    FAIR      77  77 100 CALM      30.08F
BEAUFORT MCAS  PTCLDY    77  75  93 N6        30.07S
BEAUFORT ARPT  FAIR      77  75  94 NW6       30.06S
HILTON HEAD IS PTCLDY    82  73  74 VRB5      30.06F
WALTERBORO     CLEAR     75  75 100 CALM      30.08F
ALLENDALE      FAIR      75  73  94 CALM      30.07F

...SOUTHERN MIDLANDS AND PEE DEE...

CITY           SKY/WX    TMP DP  RH WIND       PRES   REMARKS
GEORGETOWN     FAIR      73  72  94 N3        30.08F
KINGSTREE      FAIR      73  70  88 CALM      30.09S
ORANGEBURG     CLOUDY    75  73  93 CALM      30.10F
BARNWELL       NOT AVBL
AIKEN          FAIR      73  70  88 CALM      30.14F
MANNING        FAIR      72  70  94 CALM      30.09F
COLUMBIA       PTCLDY    82  69  64 E3        30.10S
SUMTER         CLOUDY    77  70  79 NE5       30.09R
FLORENCE       PTCLDY    78  72  81 NE8       30.11S
MYRTLE BEACH   CLOUDY    77  68  73 E5        30.10F
N MYRTLE BEACH MOCLDY    75  74  96 NE8       30.08F

$$

GAZ063-065-086>088-099>101-113>116-118-119-134>141-150-290600-
...SOUTHEAST GEORGIA...

CITY           SKY/WX    TMP DP  RH WIND       PRES   REMARKS
SAVANNAH ARPT  CLEAR     77  73  87 N8        30.06F
HUNTER AAF     CLEAR     76  76 100 NE6       30.03F
FORT STEWART   PTCLDY    75  73  93 NE1       30.03S
STATESBORO     CLEAR     75  74  96 CALM      30.07S
SYLVANIA       NOT AVBL
CLAXTON        FAIR      75  75 100 CALM      30.07S

...CSRA...CENTRAL AND FAR SOUTHEAST GEORGIA...

CITY           SKY/WX    TMP DP  RH WIND       PRES   REMARKS
THOMSON        CLEAR     78  74  90 MISG      30.15S
AUGUSTA-BUSH   CLEAR     75  73  93 N3        30.09F
AUGUSTA-DANIEL CLEAR     81  72  74 E3        30.11F
SWAINSBORO     FAIR      77  72  83 CALM      30.09S
VIDALIA        CLEAR     77  77 100 CALM      30.07S
EASTMAN        FAIR      78  64  62 CALM      30.09F
HAZLEHURST     FAIR      78  71  80 CALM      30.05S
ALMA           CLEAR     76  71  85 CALM      30.04F
WAYCROSS         N/A     77  76  96 NE3       30.03F
JESUP          FAIR      75  75 100 E3        30.04F
BAXLEY         FAIR      77  77 100 NE5       30.04F
BRUNSWICK      CLEAR     73  72  94 CALM      30.03F
SAINT SIMONS   PTCLDY    82  74  76 E10       30.03F

$$

SCZ027-028-034-036>038-045-046-048>050-GAZ119-141-290600-
...LAKE AND SUPPLEMENTAL COASTAL OBSERVATIONS...

STATION/POSITION TIME  TEMP    WIND        PRES    WAVE   SWELL
                       AIR SEA DIR/SP/G            HT/PER HT/PER/DIR
                 (UTC) (F)     (DEG/KT/KT) (MB)    (FT/S) (FT/S/D)
WINYAH BAY       0400   77      10/  4     1018.0S
LAKE MURRAY      0400   81      CALM  /  3 1019.0S
ACE BASIN NERRS  0400   77        CALM     1018.0F
FORT PULASKI     0500   83 85   60/ 11/ 13 1018.0F
SAPELO ISLAND    0500   80      70/  5     1017.0S

$$

ANZ835-935-AMZ111-154-330-350-352-354-370-450-454-472-290600-
...C-MAN AND BUOY OBSERVATIONS...

STATION/POSITION TIME  TEMP    WIND        PRES    WAVE   SWELL
                       AIR SEA DIR/SP/G            HT/PER HT/PER/DIR
                 (UTC) (F)     (DEG/KT/KT) (MB)    (FT/S) (FT/S/D)
BUOY 41004       0450   83 85   80/ 10/ 12 1017.2F   3/ 8   2/130/ 8
BUOY 41008       0450   83 85   70/ 16/ 17 1016.7F   4/ 8   2/130/ 8
FOLLY BEACH CMAN 0500   82      60/ 10/ 13 1018.2F
CAPERS NEARSHORE 0508   82 84   70/ 12/ 16 1017.7F
FRIPP NEARSHORE  0508   83 85   80/ 12/ 17 1017.1F


STATION/POSITION TIME  TEMP    WIND        PRES    WAVE   SWELL
                       AIR SEA DIR/SP/G            HT/PER HT/PER/DIR
                 (UTC) (F)     (DEG/KT/KT) (MB)    (FT/S) (FT/S/D)
5E ST. MARYS GA  0501      85                N/A     3/ 8
FRYING PAN BUOY  0500   83 84   80/ 12/ 14 1017.5F
BUOY 41025       0450   83 84   90/ 12/ 16 1018.2F   4/15   3/120/15
CAPE LOOKOUT NC  0500   82      60/  8/  9 1018.2S
BUOY 41002       0450   83 84   20/ 10/ 12 1016.3S   6/14   7/100/14
BUOY 41010       NOT AVBL
ST AUGUSTINE FL  0500   83 85   80/ 11/ 12 1016.6F


$$




USA.gov is the U.S. government's official web portal to all federal, state and local government web resources and services.